Wetbulb
76.97 77.75 77.83 77.19 77.35 77.07 76.92 77.02 76.28 74.69 73.73 72.93 72.24 70.68 69.20 68.49 68.52 69.06 68.36 66.81 64.72 63.78 63.49 63.60 63.36 65.27 63.87 64.68 65.00 64.29 63.94 63.24 61.34 63.49 64.48 65.71 65.12 63.07 63.79 64.59 65.38 66.70 67.04
77.27 78.15 77.13 77.28 77.44 76.62 76.16 75.47 74.61 73.13 72.92 72.33 70.54 68.90 68.12 67.88 68.04 66.98 65.83 64.77 62.50 61.91 62.57 63.10 63.12 63.22 64.31 65.52 64.15 64.12 62.88 64.12 62.66 61.43 63.98 62.31 62.43 62.95 63.24 64.13 62.78 63.91 66.92
77.51 76.83 76.78 76.52 76.39 75.32 75.00 74.25 73.40 72.53 71.56 69.87 68.67 67.49 67.33 67.18 66.96 66.62 65.26 62.14 61.89 62.14 62.90 62.91 62.96 63.17 63.26 62.73 63.25 62.52 62.98 62.14 62.55 61.00 61.05 60.59 61.35 61.61 62.95 64.71 63.14 65.35 66.32
76.98 77.59 77.86 76.71 75.70 74.45 74.28 73.47 72.37 71.38 69.06 68.06 67.31 67.16 66.49 65.82 65.89 64.85 61.93 62.19 62.39 61.99 62.53 63.00 63.08 63.28 63.33 62.94 61.96 62.35 62.44 62.24 61.90 59.80 59.96 59.89 59.81 62.80 61.03 58.74 58.46 60.33 62.94
78.60 77.58 77.26 77.47 76.38 75.20 73.03 72.26 70.99 68.78 67.12 66.88 66.54 66.16 65.26 63.91 63.41 63.03 62.75 62.09 62.16 61.86 62.06 61.71 61.05 59.34 57.94 58.59 60.39 61.70 62.89 61.85 59.72 59.31 58.68 58.65 58.67 58.99 58.59 58.72 57.21 58.19 63.16
78.99 77.83 76.79 74.99 74.59 72.64 71.76 70.10 68.43 67.11 65.77 66.16 65.62 65.25 63.88 61.76 62.13 63.24 64.12 62.13 61.97 61.74 60.78 60.41 60.88 59.56 58.02 57.04 57.37 57.37 58.50 60.39 60.23 58.36 57.49 56.96 58.77 58.54 59.34 58.14 57.62 56.37 55.27
77.47 75.82 74.47 73.05 71.78 70.88 70.26 68.33 66.63 65.44 65.08 64.69 64.97 65.00 64.23 62.50 60.80 60.56 59.82 61.64 61.60 61.52 61.47 61.09 60.72 58.60 60.88 61.58 56.96 56.19 55.91 56.04 56.83 60.77 58.49 57.67 58.14 58.56 59.72 59.49 59.14 58.54 56.79
75.18 73.77 72.00 71.28 70.83 70.22 68.28 67.17 65.65 64.48 63.77 63.94 64.20 64.45 64.57 62.96 59.54 59.45 60.19 62.41 61.95 61.49 61.57 61.23 61.10 61.11 60.47 60.26 61.68 60.49 60.47 60.62 60.11 58.97 59.57 58.65 58.52 58.92 59.07 59.81 61.20 61.85 61.71
73.63 71.79 71.25 72.08 70.38 68.90 67.38 66.77 65.17 63.52 62.48 63.26 63.59 64.16 64.16 62.67 59.56 59.48 60.45 63.14 61.25 61.31 61.55 61.86 61.13 60.82 56.87 55.13 60.12 60.09 59.85 60.17 57.92 58.22 58.32 56.89 58.06 58.41 57.82 57.11 56.80 55.68 55.51
72.30 70.49 72.70 72.66 70.06 67.24 67.15 66.34 63.71 62.35 61.98 61.34 62.29 63.44 62.47 62.34 57.68 59.59 60.65 62.23 62.43 61.37 62.15 62.36 59.23 59.25 58.35 55.84 58.48 59.64 59.59 60.62 61.11 58.61 58.59 57.74 58.41 59.87 59.64 60.46 57.66 54.92 55.20
70.47 72.71 72.33 71.23 69.02 68.55 67.05 65.06 62.39 59.86 61.00 63.34 61.97 62.29 62.46 62.21 58.52 56.24 58.61 63.04 61.50 60.79 61.10 60.83 61.43 57.25 57.21 56.64 55.28 58.99 58.83 59.83 60.46 59.44 59.98 60.20 61.30 60.83 58.79 60.56 60.73 57.49 55.23
72.30 72.16 71.06 69.55 68.36 66.94 64.11 62.06 62.26 62.58 62.86 63.58 62.67 60.38 60.66 62.23 58.38 55.03 55.40 55.69 57.14 60.82 60.31 60.42 60.24 55.80 56.01 56.08 54.80 56.83 56.70 55.92 58.14 58.02 58.21 58.82 58.29 58.60 59.96 60.31 61.11 60.34 59.78
72.28 70.84 69.77 69.24 67.58 65.05 62.73 60.89 59.97 62.44 59.82 60.21 59.13 59.02 59.08 61.31 61.26 55.88 54.13 54.56 54.90 57.92 61.33 56.61 56.03 56.09 54.35 53.24 53.59 54.60 55.36 57.15 57.55 57.75 58.73 58.99 58.84 60.54 61.66 62.81 62.58 64.29 63.50
69.70 69.03 68.04 66.44 65.65 63.86 62.67 61.76 60.63 59.92 59.86 59.20 58.73 58.68 59.54 61.04 61.71 61.99 60.03 59.32 56.30 58.08 58.69 60.25 59.64 59.05 56.28 57.46 57.56 58.42 59.09 59.50 59.02 58.72 57.94 58.56 59.86 58.40 60.23 59.74 59.52 57.77 56.11
67.94 67.34 66.84 65.94 65.17 63.96 64.29 62.46 61.38 63.34 59.37 59.20 59.48 59.73 59.66 60.13 61.51 60.84 60.21 62.05 61.97 60.02 60.48 61.98 60.97 58.45 58.45 60.17 57.99 58.55 59.39 60.39 60.31 60.13 59.29 59.02 58.94 59.18 58.38 59.38 58.54 57.24 54.97
66.13 67.05 66.12 64.88 65.20 65.13 64.00 62.02 53.45 54.35 54.27 51.52 51.00 55.94 60.27 54.72 50.99 51.20 49.61 47.66 50.20 51.87 60.08 60.48 60.16 60.86 58.55 60.60 59.35 57.89 60.91 59.23 60.09 59.52 59.54 59.58 56.60 56.52 56.94 58.54 58.20 56.51 54.57
68.07 67.24 66.13 64.27 65.58 64.94 63.67 61.73 58.64 57.09 51.66 49.93 50.28 49.13 49.06 48.69 47.57 46.79 45.78 47.88 49.04 49.53 57.89 58.45 59.04 59.05 60.08 60.44 60.15 59.21 58.01 60.61 64.22 60.15 59.55 59.05 57.25 57.43 56.86 55.10 56.43 56.52 54.72
68.29 59.88 67.58 66.16 66.00 66.04 64.46 62.20 60.27 58.04 57.90 58.32 51.31 52.38 48.57 47.56 46.73 45.67 44.61 44.37 56.07 53.74 57.11 58.17 58.39 58.57 58.94 60.87 59.16 59.54 60.77 58.90 62.25 59.61 59.48 57.54 58.02 55.78 54.34 55.88 56.30 55.24 53.81
68.21 66.69 66.79 65.88 67.07 64.99 63.78 61.81 60.77 59.79 58.79 58.02 58.88 52.91 52.36 46.22 46.18 44.63 43.44 57.99 58.91 59.57 60.35 58.49 61.01 56.92 60.28 61.37 58.07 61.51 60.00 58.79 58.49 58.50 59.02 57.81 55.62 56.64 56.74 55.67 55.19 49.32 50.32
69.44 64.80 64.01 66.93 65.99 63.68 62.62 61.50 60.25 59.53 59.32 58.67 59.08 59.88 59.87 57.49 58.18 58.91 57.96 58.69 58.28 60.35 60.93 60.48 58.73 61.87 61.85 61.81 61.58 61.36 59.93 59.67 58.72 57.28 57.49 57.80 57.43 56.28 55.24 54.78 53.82 52.55 52.44
68.19 66.06 64.24 64.60 65.04 63.58 62.37 60.90 59.83 58.87 59.62 59.80 60.40 60.85 56.94 59.88 58.81 59.52 60.98 56.94 60.44 61.24 62.33 61.99 61.64 62.63 61.87 61.00 60.60 59.46 58.60 57.74 58.23 57.14 56.33 55.92 55.89 54.82 55.21 54.36 53.46 53.24 52.81
66.64 67.01 65.11 64.82 63.93 61.09 60.30 59.84 60.22 59.89 60.21 59.99 60.34 59.27 51.17 61.39 61.77 61.15 62.02 61.19 60.90 60.75 63.42 63.16 61.74 61.83 60.28 60.60 59.75 58.77 57.39 56.64 56.56 55.99 55.38 54.92 54.93 54.76 54.04 53.47 53.21 52.91 52.75
65.99 65.32 61.50 59.52 57.85 55.28 56.96 58.38 59.49 59.97 60.34 60.13 60.83 60.91 60.63 60.85 60.44 60.77 61.59 61.81 61.41 62.34 62.60 62.78 61.70 61.58 60.20 60.21 59.31 58.15 56.56 55.96 55.89 55.75 54.46 54.05 54.15 54.15 53.85 53.27 52.87 52.61 52.14
63.32 61.34 58.58 57.31 55.25 54.99 57.51 58.89 59.23 55.46 60.40 60.66 60.74 61.18 60.90 61.32 60.76 61.38 61.35 61.13 60.91 60.99 60.74 60.28 59.77 59.05 58.80 58.46 58.17 57.81 57.12 57.13 56.56 55.56 55.04 54.06 53.67 52.99 53.50 52.95 52.66 52.64 52.42
60.11 59.94 56.89 55.71 56.07 58.12 58.18 59.20 60.40 60.73 60.40 60.84 60.93 61.12 62.04 61.48 60.80 60.39 60.07 60.62 60.09 59.49 58.87 58.25 58.23 58.43 58.36 58.03 57.74 57.53 45.48 44.29 52.57 42.30 53.65 52.94 52.34 53.33 53.05 52.89 52.72 52.39 52.02
58.18 57.89 57.24 57.08 58.35 59.11 59.71 60.21 60.43 60.39 59.93 60.19 60.42 60.95 61.59 60.98 60.13 60.20 60.49 60.27 59.26 58.16 58.02 57.86 58.18 58.51 58.29 57.68 57.01 44.98 34.71 40.30 47.18 37.23 49.40 50.32 50.43 51.63 52.47 52.24 52.09 51.36 51.17
MSLP
1007.28 1008.05 1008.77 1009.48 1010.16 1010.78 1011.35 1011.98 1012.61 1013.46 1014.14 1014.63 1014.94 1015.26 1015.58 1015.75 1015.71 1015.68 1016.23 1016.81 1017.04 1017.10 1017.14 1017.24 1017.30 1017.29 1016.47 1016.10 1015.97 1015.90 1015.63 1015.80 1015.29 1014.99 1015.50 1016.25 1016.53 1016.76 1016.57 1016.32 1015.61 1015.29 1015.90
1006.49 1007.46 1008.19 1009.01 1009.74 1010.58 1011.33 1011.98 1012.76 1013.47 1014.06 1014.59 1015.26 1015.38 1015.37 1015.62 1016.11 1016.18 1016.00 1016.72 1017.04 1017.10 1017.30 1017.44 1017.39 1017.21 1017.10 1016.97 1016.37 1016.85 1016.80 1016.62 1016.46 1016.06 1016.30 1016.15 1016.62 1016.54 1016.34 1016.03 1015.75 1014.82 1014.97
1005.85 1006.84 1007.52 1008.40 1009.52 1010.65 1011.51 1012.08 1012.76 1013.54 1014.07 1014.58 1015.08 1015.36 1015.50 1015.81 1016.11 1016.51 1016.74 1016.93 1017.11 1017.27 1017.33 1017.50 1017.54 1017.60 1017.63 1017.37 1017.27 1016.77 1016.45 1016.69 1016.52 1016.10 1015.86 1016.29 1016.25 1016.55 1016.11 1015.72 1015.46 1015.18 1014.86
1005.23 1006.19 1007.09 1008.15 1009.52 1010.45 1011.46 1012.43 1013.38 1013.98 1014.33 1014.64 1014.98 1015.43 1015.64 1015.95 1016.31 1016.64 1017.05 1017.01 1017.12 1017.39 1017.55 1017.70 1017.77 1017.83 1017.94 1017.90 1017.66 1017.47 1017.42 1016.94 1016.78 1016.32 1016.10 1016.01 1016.20 1016.42 1016.41 1015.86 1015.36 1015.16 1015.03
1004.91 1006.07 1007.28 1008.40 1009.66 1010.62 1011.87 1012.50 1013.51 1014.19 1014.54 1014.85 1015.14 1015.45 1015.87 1015.96 1016.11 1016.84 1017.22 1017.36 1017.40 1017.55 1017.69 1017.87 1018.31 1018.70 1018.91 1019.05 1018.19 1018.42 1018.09 1017.21 1016.70 1016.45 1016.29 1016.24 1016.68 1016.94 1016.85 1016.44 1015.90 1015.72 1015.42
1004.95 1006.21 1007.71 1008.92 1010.00 1011.07 1012.08 1012.84 1013.76 1014.34 1014.63 1015.12 1015.38 1015.49 1015.76 1015.45 1016.20 1016.94 1017.27 1017.47 1017.53 1017.61 1017.84 1018.17 1018.35 1018.82 1019.01 1019.19 1019.24 1019.18 1018.95 1018.55 1018.16 1017.77 1017.20 1017.59 1017.69 1017.64 1017.34 1017.28 1016.68 1016.39 1015.40
1005.29 1006.55 1007.99 1009.10 1010.14 1011.08 1011.99 1012.96 1013.67 1014.24 1014.72 1015.05 1015.39 1015.64 1015.85 1016.42 1016.55 1017.09 1017.42 1017.44 1017.59 1017.58 1017.79 1017.91 1017.85 1018.26 1018.80 1018.80 1019.25 1019.19 1018.97 1018.78 1018.66 1018.44 1018.36 1018.38 1018.10 1018.17 1018.11 1017.64 1017.22 1016.86 1016.03
1005.46 1006.73 1007.80 1008.73 1009.61 1010.67 1011.53 1012.29 1013.05 1013.82 1014.43 1015.05 1015.33 1015.68 1015.85 1016.60 1017.15 1017.34 1017.52 1017.29 1017.44 1017.82 1017.99 1017.91 1017.90 1018.32 1018.87 1019.09 1018.72 1018.53 1018.34 1018.44 1018.34 1018.30 1018.49 1018.62 1018.45 1018.57 1018.33 1017.85 1017.32 1016.87 1015.82
1005.21 1006.43 1007.59 1008.47 1009.30 1010.32 1011.10 1012.00 1012.60 1013.13 1014.00 1014.40 1015.08 1015.60 1015.85 1016.53 1017.32 1017.71 1017.80 1017.36 1017.36 1017.79 1018.01 1018.08 1018.35 1018.41 1019.02 1019.25 1019.05 1018.41 1018.26 1017.81 1018.13 1018.46 1018.56 1018.52 1018.38 1018.32 1018.35 1017.73 1016.60 1016.21 1015.32
1005.14 1006.34 1007.24 1008.11 1009.25 1010.25 1010.77 1011.34 1012.10 1012.98 1013.53 1013.87 1014.95 1015.51 1015.75 1016.30 1017.35 1017.59 1017.74 1016.95 1016.81 1016.93 1017.68 1017.89 1018.35 1018.60 1018.97 1019.24 1019.17 1018.57 1018.12 1017.89 1017.65 1018.04 1018.45 1018.16 1018.06 1017.86 1018.22 1017.72 1017.28 1016.68 1015.99
1005.44 1006.52 1007.23 1007.88 1008.78 1009.84 1010.77 1011.79 1012.53 1012.34 1012.35 1013.29 1014.43 1015.03 1015.42 1016.00 1016.95 1017.37 1017.56 1017.13 1016.27 1016.73 1016.25 1016.76 1017.16 1018.51 1018.94 1019.19 1019.22 1018.91 1018.46 1018.28 1017.91 1017.77 1017.24 1016.83 1016.46 1016.56 1017.12 1016.87 1017.23 1017.46 1016.74
1005.65 1006.36 1007.09 1007.96 1008.54 1009.83 1010.83 1011.75 1012.13 1012.21 1012.78 1013.20 1013.91 1014.48 1014.86 1015.57 1016.39 1017.05 1017.27 1017.27 1017.05 1016.36 1016.00 1016.06 1017.05 1018.09 1018.65 1018.84 1019.05 1018.74 1018.56 1018.50 1017.81 1016.98 1016.09 1015.72 1015.64 1015.79 1016.31 1016.55 1016.95 1017.22 1017.14
1005.78 1006.61 1007.17 1007.81 1008.48 1009.88 1010.92 1011.83 1012.57 1012.86 1012.16 1012.91 1013.29 1013.61 1013.84 1014.88 1015.72 1016.45 1016.86 1017.17 1017.25 1017.03 1016.32 1017.15 1017.41 1017.80 1018.28 1018.35 1018.08 1018.05 1018.10 1017.84 1017.12 1016.29 1015.93 1015.66 1015.89 1015.67 1015.80 1016.04 1016.28 1016.39 1016.45
1005.95 1006.99 1007.91 1008.63 1009.59 1010.23 1010.82 1011.53 1011.54 1011.81 1012.03 1012.84 1012.75 1012.92 1012.97 1013.69 1014.49 1015.47 1016.12 1016.61 1017.01 1017.16 1016.84 1016.72 1017.11 1017.23 1017.23 1017.13 1017.22 1017.01 1016.80 1016.57 1016.16 1015.85 1015.47 1015.24 1015.19 1015.47 1015.66 1015.67 1015.46 1015.37 1015.42
1006.04 1006.95 1007.64 1008.37 1009.02 1010.10 1010.21 1010.57 1010.71 1011.14 1011.30 1011.62 1012.02 1012.28 1012.34 1012.80 1013.34 1013.82 1014.67 1014.94 1015.44 1015.61 1016.05 1015.98 1015.71 1016.12 1016.16 1016.11 1016.04 1016.02 1015.44 1015.38 1015.24 1014.79 1015.12 1014.89 1014.79 1015.21 1015.31 1015.15 1014.90 1014.78 1014.86
1006.24 1006.71 1007.11 1007.87 1008.49 1009.10 1009.53 1010.36 1010.95 1010.97 1011.40 1011.66 1012.09 1012.21 1012.44 1012.78 1013.47 1013.77 1014.29 1015.09 1015.52 1015.50 1015.57 1015.03 1014.81 1014.80 1015.06 1014.81 1014.88 1015.21 1014.72 1014.48 1013.78 1013.90 1014.26 1014.67 1014.67 1014.92 1015.00 1014.67 1014.58 1014.30 1014.31
1006.05 1006.58 1006.84 1007.32 1007.60 1008.19 1008.70 1009.23 1010.12 1011.41 1011.58 1011.60 1012.05 1012.49 1013.14 1013.77 1013.93 1014.36 1014.63 1014.95 1015.20 1015.34 1015.09 1014.66 1014.25 1014.10 1013.81 1014.15 1014.22 1014.13 1014.14 1013.43 1013.32 1013.61 1013.51 1014.37 1014.36 1014.68 1014.64 1014.50 1014.20 1013.98 1013.89
1006.11 1005.94 1006.54 1006.67 1006.97 1007.23 1007.70 1008.37 1009.26 1010.05 1010.78 1011.36 1011.89 1012.47 1012.87 1013.36 1014.02 1014.59 1014.86 1015.14 1015.24 1015.16 1014.51 1013.89 1013.66 1013.64 1013.38 1013.04 1013.17 1013.67 1013.03 1012.70 1012.87 1013.01 1013.35 1013.67 1013.76 1013.75 1014.11 1013.64 1013.43 1013.40 1013.54
1005.11 1005.58 1006.07 1006.43 1006.22 1006.61 1007.35 1008.11 1008.51 1008.82 1009.46 1010.19 1010.70 1012.15 1012.60 1013.29 1013.84 1014.26 1014.56 1014.38 1013.77 1013.12 1012.71 1012.70 1012.34 1012.71 1012.88 1012.39 1012.84 1013.03 1012.78 1012.38 1012.44 1012.91 1012.90 1012.98 1013.30 1013.15 1012.77 1012.83 1012.90 1013.50 1013.92
1004.51 1004.86 1005.56 1005.71 1006.00 1006.99 1007.23 1007.36 1007.70 1007.97 1008.52 1008.95 1009.29 1009.96 1011.03 1012.59 1013.11 1013.19 1013.08 1013.04 1013.00 1012.46 1011.83 1011.37 1011.50 1011.29 1011.41 1011.60 1011.74 1011.77 1011.90 1011.96 1012.33 1012.52 1012.62 1012.36 1012.21 1012.22 1012.35 1012.56 1012.94 1013.23 1013.33
1004.19 1004.78 1005.38 1005.64 1005.71 1006.36 1006.68 1006.97 1007.28 1007.66 1007.95 1008.31 1008.10 1008.40 1009.26 1010.39 1010.91 1010.86 1010.61 1011.50 1011.60 1010.94 1010.53 1010.68 1010.49 1010.84 1010.94 1011.23 1011.47 1011.41 1011.40 1011.32 1011.51 1011.43 1011.55 1011.79 1011.97 1012.03 1012.36 1012.57 1012.75 1012.83 1012.87
1004.00 1004.79 1005.51 1005.23 1005.44 1006.24 1006.87 1007.22 1007.60 1007.25 1007.67 1007.88 1007.94 1008.87 1009.08 1009.43 1009.43 1009.42 1009.59 1010.08 1010.27 1010.15 1009.73 1009.96 1010.25 1010.50 1010.69 1010.72 1010.61 1010.53 1010.49 1010.58 1010.96 1011.35 1011.57 1011.77 1011.79 1011.86 1012.11 1012.23 1012.28 1012.31 1012.34
1003.97 1004.68 1005.45 1005.98 1006.34 1006.71 1007.53 1008.17 1008.28 1007.36 1007.42 1007.39 1007.21 1007.72 1008.50 1008.56 1008.73 1008.94 1008.73 1009.09 1009.14 1008.99 1009.10 1009.55 1009.80 1010.22 1010.49 1010.35 1010.42 1010.80 1010.93 1010.99 1011.16 1011.36 1011.48 1011.50 1011.48 1011.42 1011.54 1011.54 1011.58 1011.57 1011.62
1004.12 1005.16 1005.92 1006.38 1007.29 1007.74 1008.18 1007.67 1007.42 1007.61 1006.79 1006.87 1007.00 1007.15 1007.51 1007.66 1007.92 1008.18 1008.45 1008.25 1008.52 1008.79 1009.13 1009.31 1009.40 1009.63 1010.06 1010.30 1010.51 1010.81 1010.92 1010.98 1011.26 1011.46 1011.69 1011.70 1011.48 1011.22 1011.18 1011.23 1011.17 1011.11 1011.15
1004.82 1005.70 1006.20 1007.18 1007.20 1007.69 1007.35 1007.17 1006.72 1006.43 1006.64 1006.47 1006.22 1006.41 1006.70 1007.06 1007.51 1007.33 1007.59 1008.02 1008.51 1008.91 1009.10 1009.23 1009.27 1009.52 1009.98 1010.32 1010.67 1010.70 1011.83 1011.94 1012.13 1012.67 1012.31 1012.17 1011.98 1011.66 1011.38 1011.14 1010.93 1010.79 1010.85
1005.13 1006.03 1006.40 1007.59 1006.34 1006.76 1006.81 1006.05 1005.64 1005.83 1005.93 1005.96 1006.20 1006.55 1007.03 1006.81 1006.91 1007.37 1007.65 1008.05 1008.48 1008.79 1008.95 1008.98 1009.03 1009.18 1009.51 1009.86 1010.11 1011.11 1011.85 1012.01 1012.20 1012.61 1012.56 1012.17 1011.77 1011.34 1011.02 1010.80 1010.71 1010.66 1010.55
Wind_Speed
18 16 15 14 15 12 9 9 9 9 9 8 7 6 5 5 5 5 7 5 3 4 3 3 4 4 5 2 2 3 3 5 5 6 3 7 4 6 6 7 7 7 7
18 16 16 15 14 11 11 11 10 11 10 9 7 7 7 7 6 7 6 7 4 5 5 3 4 3 3 2 3 3 5 3 7 0 4 3 4 5 3 4 5 7 2
19 18 18 17 14 13 13 12 13 12 11 10 9 8 8 7 7 5 6 6 6 5 5 4 4 3 4 5 6 6 2 3 2 3 2 4 2 4 6 4 2 4 6
19 18 16 16 14 14 12 11 10 10 10 10 9 9 9 8 7 8 8 7 7 6 5 4 4 4 4 4 4 1 3 5 2 4 1 1 4 5 6 6 6 6 5
16 17 15 13 12 12 12 11 10 10 9 9 10 10 9 9 8 9 8 7 6 6 6 6 8 7 6 7 7 7 6 6 5 3 3 4 6 8 6 7 6 7 5
15 15 14 13 12 13 11 12 11 10 10 9 9 10 9 7 14 6 6 7 7 6 6 6 7 6 4 5 6 6 5 6 5 6 7 6 5 7 6 7 6 7 6
15 14 15 15 14 13 13 13 12 11 10 10 10 10 9 9 12 7 3 7 7 6 5 4 7 8 3 7 4 3 2 1 3 4 5 6 6 6 7 8 5 6 5
15 17 17 16 15 15 16 14 13 11 11 10 10 10 9 9 10 8 4 6 6 6 5 3 0 4 5 6 4 4 4 8 4 1 4 4 5 4 6 8 8 9 10
17 17 17 18 18 17 15 13 12 12 11 10 10 10 10 11 11 9 7 7 8 6 5 4 2 3 9 1 7 4 3 7 9 5 4 6 8 9 7 6 6 7 5
18 17 17 17 16 15 15 15 12 10 11 10 10 10 9 10 10 11 11 9 8 8 9 6 7 4 8 4 5 7 6 4 6 8 8 10 12 11 11 5 6 8 7
17 18 16 17 17 15 13 10 10 11 13 10 11 10 10 10 11 11 12 10 6 6 7 9 8 11 10 8 7 7 8 9 9 8 10 11 9 9 9 4 2 5 8
17 16 17 17 14 12 12 11 11 11 10 9 10 10 10 10 11 10 10 12 9 5 4 3 10 13 10 9 8 11 6 6 8 10 10 7 5 3 4 4 1 3 5
16 16 16 15 12 13 13 12 10 7 10 11 11 10 11 10 10 13 13 9 6 5 5 7 9 9 8 9 14 14 10 9 10 10 7 6 3 6 2 6 5 9 9
14 14 11 13 11 13 12 10 9 9 9 9 10 10 10 11 11 12 11 10 10 7 9 8 8 9 8 9 6 10 10 11 8 9 9 8 4 2 4 6 5 5 6
13 10 13 11 14 13 11 10 10 10 9 11 10 10 10 9 10 11 10 11 11 12 10 10 9 6 6 9 6 7 7 10 12 8 7 7 7 2 4 6 7 6 7
11 11 11 12 11 12 11 10 9 5 10 11 10 4 6 12 11 10 10 11 8 5 10 9 8 9 6 8 6 6 7 8 8 6 5 4 3 2 5 7 3 6 8
10 13 11 11 11 12 12 11 11 4 6 9 7 3 8 9 9 8 9 7 5 1 8 10 10 6 8 8 8 7 9 10 2 7 5 3 3 4 7 6 8 7 7
12 10 10 10 12 12 12 10 10 11 10 10 5 7 7 5 6 7 8 3 6 6 10 11 10 10 10 9 4 7 10 8 3 6 6 3 7 5 7 8 7 7 7
11 12 11 11 11 11 10 9 10 11 11 10 11 8 9 2 4 7 9 8 11 11 9 8 12 4 11 3 4 6 7 9 6 7 5 8 6 11 8 8 6 2 2
14 15 12 9 9 10 11 10 10 10 10 10 11 12 12 11 9 10 10 10 8 11 11 8 4 10 7 8 7 6 6 5 4 6 9 8 6 7 8 6 7 8 8
9 8 10 9 11 10 9 9 8 8 8 9 9 10 16 13 12 12 11 8 11 11 8 7 8 5 4 7 9 6 9 7 7 7 6 7 7 7 7 7 8 9 9
8 9 9 6 10 5 3 5 7 9 8 9 9 9 15 10 10 7 4 9 5 7 9 5 7 5 5 6 7 7 9 7 6 7 7 8 8 7 7 9 9 9 9
8 11 9 7 7 9 7 4 8 8 8 10 11 10 9 9 9 9 6 9 8 8 3 5 5 2 4 8 6 6 7 7 7 7 7 8 8 8 9 9 9 9 8
9 10 9 8 8 8 7 13 6 13 12 7 10 8 8 8 6 7 6 5 5 5 5 7 6 7 7 6 5 6 8 3 4 4 6 8 9 9 8 10 11 12 10
10 11 10 8 7 9 9 10 13 11 10 10 8 7 3 4 9 6 4 3 4 5 7 7 7 6 8 8 9 9 9 10 4 5 6 10 12 14 11 10 12 11 12
11 9 8 9 9 10 13 13 10 9 10 10 9 5 6 7 3 3 3 4 5 6 7 7 7 9 8 8 10 9 10 8 2 2 5 8 10 10 10 11 13 10 12
Wind_Direction
185 184 186 190 191 190 176 183 165 142 149 165 167 157 149 135 138 105 78 114 86 84 93 74 58 350 3 69 46 7 8 339 295 34 53 84 28 3 353 336 312 288 129
183 178 182 187 185 178 167 168 157 157 164 158 161 158 151 144 145 147 166 113 129 116 101 86 37 52 189 279 112 2 37 46 326 246 60 23 69 3 348 353 329 335 151
180 180 180 183 169 178 179 166 164 165 161 155 161 161 151 150 154 145 124 138 128 117 111 101 89 89 29 45 10 351 76 49 330 340 340 72 348 30 342 22 333 280 214
179 181 173 173 171 175 167 161 163 163 161 157 160 157 154 154 161 149 147 143 141 122 117 101 76 59 51 39 47 53 42 303 136 277 1 3 39 3 10 7 357 348 31
174 176 162 161 156 151 161 152 158 163 157 162 159 157 161 164 162 151 151 146 134 131 120 120 77 63 49 22 346 17 340 342 349 334 352 10 29 344 20 340 3 340 158
164 168 149 144 154 150 150 153 156 164 157 166 169 163 169 186 98 106 162 152 146 139 130 121 130 155 115 60 40 33 31 13 46 348 22 6 21 340 5 345 3 346 331
161 147 145 148 153 149 155 155 164 164 161 171 173 172 183 126 125 140 261 152 168 153 146 161 233 105 242 149 179 209 188 17 325 11 16 15 335 2 331 321 4 315 318
160 151 155 158 155 153 158 163 162 167 167 176 175 180 183 144 150 172 239 188 161 173 163 176 23 133 71 329 296 215 198 186 187 11 34 7 6 335 322 299 281 272 255
161 159 160 160 155 162 163 160 162 160 172 173 177 182 189 141 170 189 212 203 167 187 188 193 217 223 132 93 295 263 278 286 153 164 203 207 235 239 272 302 347 304 314
162 157 165 160 156 160 165 163 158 162 167 172 174 185 186 156 174 192 208 233 193 191 184 195 178 258 152 173 271 297 291 323 318 178 223 236 239 232 227 260 329 319 319
149 161 160 162 164 169 157 158 161 166 153 174 175 180 181 168 175 195 217 254 225 216 207 179 194 183 188 198 227 270 286 333 299 266 256 261 197 192 187 194 86 311 310
160 162 163 166 165 158 152 155 169 166 149 165 176 181 178 173 168 201 220 237 319 255 233 187 128 171 190 201 218 252 260 291 268 262 272 267 284 310 68 41 191 271 285
166 168 170 164 154 151 154 158 169 182 157 179 181 191 180 183 179 180 204 232 243 260 291 66 99 166 183 214 229 246 243 252 254 263 275 264 266 264 217 274 198 218 230
160 170 156 161 152 159 162 166 174 178 179 197 187 197 194 184 199 181 197 203 229 235 255 263 232 224 239 272 235 233 227 236 239 255 287 287 275 267 240 236 234 277 299
158 159 164 160 160 168 179 176 188 189 197 186 194 199 204 197 201 171 181 194 203 203 218 228 234 212 222 236 242 287 258 216 225 237 239 281 260 228 234 258 268 264 263
157 168 170 158 173 179 180 164 60 95 126 95 78 42 113 100 91 90 97 96 92 50 208 249 251 231 226 251 249 263 288 280 257 259 268 278 199 207 274 305 296 276 287
171 176 171 173 181 183 186 179 185 133 93 117 118 78 75 106 95 90 78 66 71 122 241 250 264 275 270 218 251 259 261 262 280 230 233 222 179 253 267 245 274 273 268
187 190 188 188 188 188 189 189 189 188 192 202 192 224 201 167 161 144 123 108 222 218 250 257 257 259 267 246 240 266 265 296 271 267 259 237 256 220 247 259 254 275 289
197 176 188 195 193 186 178 191 196 187 187 194 190 187 216 201 121 145 159 235 243 250 254 237 238 209 263 294 222 242 256 281 289 292 256 257 214 240 252 270 279 314 295
200 180 191 195 168 185 193 193 197 192 186 193 193 182 189 181 212 215 214 222 238 256 254 260 240 234 241 218 235 259 281 284 234 228 235 245 271 278 279 281 275 272 266
175 166 179 194 188 185 186 192 193 201 192 206 201 188 184 188 210 222 229 180 220 231 239 239 261 292 281 253 258 272 274 261 260 276 282 280 281 272 262 261 262 260 257
172 174 192 191 171 140 122 179 202 198 205 210 208 143 144 198 229 243 218 211 223 258 231 263 264 275 253 275 276 286 300 294 297 290 281 275 265 261 258 256 255 257 264
173 167 138 105 94 71 55 354 263 229 220 218 221 159 183 219 219 240 251 248 223 258 268 239 266 236 249 265 291 302 296 294 294 296 290 282 269 252 249 254 255 256 260
130 134 128 111 120 139 202 221 200 225 230 205 231 164 194 214 204 223 238 277 296 306 287 269 272 298 311 304 267 269 251 285 306 294 303 292 284 282 262 257 258 259 260
139 139 123 133 169 211 212 215 218 208 212 238 226 223 264 264 246 249 278 267 293 298 295 291 282 268 268 254 271 296 106 91 1 11 290 275 280 288 282 281 282 287 288
127 141 136 190 187 201 210 214 211 208 201 209 222 195 247 245 241 278 279 285 278 280 284 286 282 281 265 261 246 122 136 132 184 159 282 276 273 266 262 266 269 271 273